Date String (YYYY-MM-DD hh:mm:ss) UTC,Instrument flags,absolute air pressure of the measurement (hPa),sample flow rate (lpm),inlet stack bypass flow (lpm),air temperature of the measurement (°C),ambient temperature measured by the external sensor (°C),aerosol sample conditioner tube jacket temperature (°C),OPC LED temperature (°C),internal box temperature (°C),relative humidity of the measurement (%),span deviation,mass concentration of particles derived from Lorenz-Mie calculation of OPC scattering (μg/m³),mass concentration of particles derived from Lorenz-Mie calculation of OPC scattering (μg/m³),mass concentration of particles derived from Lorenz-Mie calculation of OPC scattering (μg/m³)
DateTimeUTC,F1_M11,P_M11,Q1_M11,Q2_M11,T1_M11,T2_M11,T3_M11,T4_M11,T5_M11,U1_M11,ZSPAN_M11,X0_M11,X2_M11,X1_M11
2024-05-14 09:00:00,SystemResetWarning,0825.5,4.97,000.00,025.4,023.7,000.0,033.5,026.6,018.9,0000.0,0003.90,0002.78,0002.28
2024-05-14 09:01:00,SystemResetWarning,0825.4,5.02,000.00,024.9,022.1,000.0,033.6,025.7,019.3,0000.0,0003.90,0002.77,0002.26
2024-05-14 09:02:00,SystemResetWarning,0825.4,5.01,000.00,024.7,022.2,000.0,033.5,025.6,019.6,0000.0,0003.77,0002.71,0002.25
2024-05-14 09:03:00,SystemResetWarning,0825.5,4.99,000.00,024.7,022.5,000.0,033.4,025.8,019.5,0000.0,0003.73,0002.69,0002.26
2024-05-14 09:04:00,SystemResetWarning,0825.5,5.00,000.00,024.7,022.8,000.0,033.3,026.1,019.4,0000.0,0003.72,0002.68,0002.27
2024-05-14 09:05:00,SystemResetWarning,0825.5,5.02,000.00,024.7,023.2,000.0,033.2,026.2,019.2,0000.0,0003.76,0002.70,0002.27
2024-05-14 09:06:00,SystemResetWarning,0825.5,5.00,000.00,024.8,023.4,000.0,033.2,026.4,019.7,0000.0,0003.75,0002.71,0002.28
2024-05-14 09:07:00,SystemResetWarning,0825.6,5.00,000.00,024.8,023.7,000.0,033.1,026.5,020.0,0000.0,0003.65,0002.71,0002.29
2024-05-14 09:08:00,SystemResetWarning,0825.6,5.00,000.00,024.8,023.9,000.0,033.1,026.6,020.0,0000.0,0003.71,0002.73,0002.30
2024-05-14 09:09:00,SystemResetWarning,0825.6,5.00,000.00,024.9,024.0,000.0,033.1,026.6,019.9,0000.0,0003.82,0002.78,0002.33
2024-05-14 09:10:00,SystemResetWarning,0825.6,4.99,000.00,025.0,024.2,000.0,033.1,026.7,019.7,0000.0,0003.67,0002.74,0002.35
2024-05-14 09:11:00,SystemResetWarning,0825.6,5.00,000.00,025.0,024.3,000.0,033.1,026.8,019.4,0000.0,0003.86,0002.77,0002.36
2024-05-14 09:12:00,SystemResetWarning,0825.7,4.99,000.00,025.1,024.4,000.0,033.2,026.9,019.8,0000.0,0003.80,0002.75,0002.37
2024-05-14 09:13:00,SystemResetWarning,0825.6,5.00,000.00,025.1,024.5,000.0,033.2,026.9,019.6,0000.0,0003.90,0002.79,0002.38
2024-05-14 09:14:00,SystemResetWarning,0825.6,5.01,000.00,025.2,024.6,000.0,033.2,027.0,019.6,0000.0,0003.97,0002.82,0002.39
2024-05-14 09:15:00,SystemResetWarning,0825.6,5.01,000.00,025.2,024.7,000.0,033.2,027.0,019.6,0000.0,0003.97,0002.82,0002.40
2024-05-14 09:16:00,SystemResetWarning,0825.7,5.00,000.00,025.3,024.7,000.0,033.3,027.1,019.6,0000.0,0004.03,0002.86,0002.43
2024-05-14 09:17:00,SystemResetWarning,0825.6,5.00,000.00,025.3,024.8,000.0,033.3,027.1,019.5,0000.0,0004.08,0002.91,0002.46
2024-05-14 09:18:00,SystemResetWarning,0825.6,4.99,000.00,025.4,024.9,000.0,033.3,027.2,019.3,0000.0,0004.15,0002.91,0002.47
2024-05-14 09:19:00,SystemResetWarning,0825.6,5.00,000.00,025.4,024.9,000.0,033.4,027.2,019.4,0000.0,0005.02,0002.94,0002.49
2024-05-14 09:20:00,SystemResetWarning,0825.6,5.00,000.00,025.4,024.9,000.0,033.4,027.2,019.3,0000.0,0005.01,0002.92,0002.50
2024-05-14 09:21:00,SystemResetWarning,0825.6,5.00,000.00,025.3,023.2,000.0,033.5,026.4,019.6,0000.0,0004.98,0002.91,0002.50
2024-05-14 09:22:00,SystemResetWarning,0825.6,5.01,000.00,024.9,021.9,000.0,033.5,025.7,020.2,0000.0,0005.06,0002.97,0002.51
2024-05-14 09:23:00,SystemResetWarning,0825.6,5.01,000.00,024.7,022.1,000.0,033.4,025.6,020.4,0000.0,0005.28,0003.04,0002.53
2024-05-14 09:24:00,SystemResetWarning,0825.6,4.98,000.00,024.7,022.5,000.0,033.3,025.8,020.4,0000.0,0005.36,0003.06,0002.55
2024-05-14 09:25:00,SystemResetWarning,0825.6,5.00,000.00,024.7,022.8,000.0,033.2,026.1,020.7,0000.0,0006.81,0003.05,0002.55
2024-05-14 09:26:00,SystemResetWarning,0825.6,5.01,000.00,024.7,023.2,000.0,033.1,026.3,020.4,0000.0,0007.02,0003.07,0002.55
2024-05-14 09:27:00,SystemResetWarning,0825.7,5.00,000.00,024.7,023.4,000.0,033.1,026.4,019.8,0000.0,0007.05,0003.08,0002.54
2024-05-14 09:28:00,SystemResetWarning,0825.6,4.99,000.00,024.8,023.7,000.0,033.1,026.5,020.0,0000.0,0007.10,0003.09,0002.53
2024-05-14 09:29:00,SystemResetWarning,0825.6,4.99,000.00,024.8,023.9,000.0,033.1,026.6,020.0,0000.0,0007.23,0003.09,0002.51
2024-05-14 09:30:00,SystemResetWarning,0825.6,5.00,000.00,024.9,024.0,000.0,033.1,026.6,019.6,0000.0,0006.57,0003.09,0002.49
2024-05-14 09:31:00,SystemResetWarning,0825.6,5.00,000.00,024.9,024.2,000.0,033.1,026.7,019.4,0000.0,0006.27,0003.10,0002.47
2024-05-14 09:32:00,SystemResetWarning,0825.6,5.00,000.00,025.0,024.3,000.0,033.1,026.8,019.3,0000.0,0006.36,0003.10,0002.45
2024-05-14 09:33:00,SystemResetWarning,0825.6,5.01,000.00,025.0,024.4,000.0,033.1,026.8,019.2,0000.0,0006.15,0003.04,0002.43
2024-05-14 09:34:00,SystemResetWarning,0825.6,5.01,000.00,025.1,024.5,000.0,033.1,026.9,019.1,0000.0,0005.95,0002.99,0002.41
2024-05-14 09:35:00,SystemResetWarning,0825.6,5.00,000.00,025.1,024.6,000.0,033.2,026.9,019.0,0000.0,0005.84,0002.96,0002.38
2024-05-14 09:36:00,SystemResetWarning,0825.6,5.00,000.00,025.2,024.7,000.0,033.2,027.0,019.2,0000.0,0004.63,0002.90,0002.36
2024-05-14 09:37:00,SystemResetWarning,0825.6,4.99,000.00,025.2,024.7,000.0,033.2,027.0,019.2,0000.0,0004.10,0002.89,0002.33
2024-05-14 09:38:00,SystemResetWarning,0825.6,5.00,000.00,025.3,024.8,000.0,033.3,027.1,019.0,0000.0,0004.17,0002.89,0002.31
2024-05-14 09:39:00,SystemResetWarning,0825.6,4.99,000.00,025.3,024.8,000.0,033.3,027.1,019.1,0000.0,0004.13,0002.83,0002.27
2024-05-14 09:40:00,SystemResetWarning,0825.6,5.00,000.00,025.4,024.9,000.0,033.3,027.2,019.3,0000.0,0003.96,0002.78,0002.25
2024-05-14 09:41:00,SystemResetWarning,0825.6,5.01,000.00,025.4,024.9,000.0,033.4,027.2,019.3,0000.0,0003.92,0002.74,0002.23
2024-05-14 09:42:00,SystemResetWarning,0825.6,4.99,000.00,025.3,023.9,000.0,033.4,026.6,019.2,0000.0,0003.80,0002.68,0002.20
2024-05-14 09:43:00,SystemResetWarning,0825.6,5.00,000.00,024.9,022.0,000.0,033.5,025.7,019.5,0000.0,0003.85,0002.60,0002.17
2024-05-14 09:44:00,SystemResetWarning,0825.6,5.01,000.00,024.7,022.0,000.0,033.5,025.6,020.1,0000.0,0003.85,0002.59,0002.15
2024-05-14 09:45:00,SystemResetWarning,0825.6,4.98,000.00,024.6,022.3,000.0,033.3,025.7,020.4,0000.0,0003.84,0002.58,0002.14
2024-05-14 09:46:00,SystemResetWarning,0825.6,5.00,000.00,024.6,022.7,000.0,033.2,026.0,020.5,0000.0,0003.94,0002.58,0002.14
2024-05-14 09:47:00,SystemResetWarning,0825.6,5.02,000.00,024.6,023.0,000.0,033.1,026.2,020.3,0000.0,0004.29,0002.63,0002.15
2024-05-14 09:48:00,SystemResetWarning,0825.6,4.99,000.00,024.7,023.3,000.0,033.1,026.3,020.0,0000.0,0005.79,0002.77,0002.18
2024-05-14 09:49:00,SystemResetWarning,0825.6,5.00,000.00,024.7,023.6,000.0,033.1,026.4,020.7,0000.0,0006.41,0002.82,0002.21
2024-05-14 09:50:00,SystemResetWarning,0825.6,4.99,000.00,024.8,023.8,000.0,033.0,026.5,020.8,0000.0,0006.90,0002.98,0002.25
2024-05-14 09:51:00,SystemResetWarning,0825.7,5.00,000.00,024.8,023.9,000.0,033.0,026.6,020.7,0000.0,0007.54,0003.13,0002.29
2024-05-14 09:52:00,SystemResetWarning,0825.6,5.00,000.00,024.9,024.1,000.0,033.0,026.7,020.2,0000.0,0008.38,0003.19,0002.31
2024-05-14 09:53:00,SystemResetWarning,0825.6,5.00,000.00,024.9,024.2,000.0,033.1,026.8,019.8,0000.0,0008.87,0003.24,0002.33
2024-05-14 09:54:00,SystemResetWarning,0825.7,5.00,000.00,025.0,024.4,000.0,033.1,026.8,019.6,0000.0,0009.09,0003.29,0002.36
2024-05-14 09:55:00,SystemResetWarning,0825.7,4.99,000.00,025.0,024.4,000.0,033.1,026.9,019.8,0000.0,0009.21,0003.34,0002.38
2024-05-14 09:56:00,SystemResetWarning,0825.7,4.99,000.00,025.1,024.5,000.0,033.1,026.9,020.5,0000.0,0009.93,0003.40,0002.41
2024-05-14 09:57:00,SystemResetWarning,0825.7,5.00,000.00,025.1,024.6,000.0,033.2,027.0,020.6,0000.0,0009.99,0003.45,0002.45
2024-05-14 09:58:00,SystemResetWarning,0825.7,5.01,000.00,025.2,024.7,000.0,033.2,027.0,020.6,0000.0,0010.48,0003.49,0002.48
2024-05-14 09:59:00,SystemResetWarning,0825.7,5.00,000.00,025.2,024.8,000.0,033.2,027.1,020.3,0000.0,0011.68,0003.53,0002.48
